Sacramento, CA

7:49 PM PST on February 24, 2017 (GMT -0800)
Sacramento International

Weather History for KSMF - April, 2014

Change the Weather History Date:

Thursday, April 24, 2014

  Actual Average Record
Temperature  
Mean Temperature 62 °F -  
Max Temperature 75 °F 72 °F 90 °F (2013)
Min Temperature 51 °F 45 °F 35 °F (2008)
Degree Days  
Heating Degree Days 3    
Growing Degree Days 12 (Base 50)    
Moisture  
Dew Point 48 °F    
Average Humidity 62    
Maximum Humidity 83    
Minimum Humidity 33    
Precipitation  
Precipitation 0.00 in - - ()
Sea Level Pressure  
Sea Level Pressure 30.00 in    
Wind  
Wind Speed 8 mph (South)    
Max Wind Speed 17 mph    
Max Gust Speed 22 mph    
Visibility 10 miles    
Events Rain    
Averages and records for this station are not official NWS values.
T = Trace of Precipitation, MM = Missing Value Source: NWS Daily Summary

Daily Weather History Graph

Daily Weather History Graph

Search for Another Location

Airport or City:

Trip Planner

Search our weather history database for the weather conditions in past years. The results will help you decide how hot, cold, wet, or windy it might be!

Date:

Astronomy

Apr. 24, 2014 Rise Set
Actual Time 6:17 AM PDT 7:51 PM PDT
Civil Twilight 5:49 AM PDT 8:20 PM PDT
Nautical Twilight 5:15 AM PDT 8:54 PM PDT
Astronomical Twilight 4:39 AM PDT 9:30 PM PDT
Moon 3:28 AM PDT (4/24) 3:16 PM PDT (4/24)
Length of Visible Light 14h 30m
Length of Day
13h 34m
Waning Crescent, 23% of the Moon is Illuminated
Apr 24
Waning Crescent
Apr 28
New
May 6
First Quarter
May 14
Full
May 21
Last Quarter

Hourly Weather History & Observations

Time (PDT) Temp. Dew Point Humidity Pressure Visibility Wind Dir Wind Speed Gust Speed Precip Events Conditions
12:53 AM 55.0 °F 46.0 °F 72% 30.05 in 10.0 mi South 3.5 mph - N/A   Clear
1:53 AM 54.0 °F 46.9 °F 77% 30.04 in 10.0 mi SE 6.9 mph - N/A   Clear
2:53 AM 54.0 °F 46.9 °F 77% 30.04 in 10.0 mi SSE 8.1 mph - N/A   Clear
3:53 AM 51.1 °F 46.0 °F 83% 30.03 in 10.0 mi SE 8.1 mph - N/A   Partly Cloudy
4:53 AM 53.1 °F 46.9 °F 80% 30.02 in 10.0 mi SE 10.4 mph - N/A   Clear
5:53 AM 53.1 °F 46.9 °F 80% 30.03 in 10.0 mi SSE 6.9 mph - N/A   Overcast
6:53 AM 53.1 °F 48.0 °F 83% 30.04 in 10.0 mi South 4.6 mph - N/A   Mostly Cloudy
7:53 AM 55.0 °F 48.9 °F 80% 30.05 in 10.0 mi SE 6.9 mph - N/A   Mostly Cloudy
8:53 AM 59.0 °F 48.0 °F 67% 30.05 in 10.0 mi ESE 8.1 mph - N/A   Mostly Cloudy
9:53 AM 62.1 °F 48.0 °F 60% 30.07 in 10.0 mi SSE 8.1 mph - N/A   Mostly Cloudy
10:53 AM 64.9 °F 46.9 °F 52% 30.06 in 10.0 mi South 9.2 mph - N/A   Overcast
11:53 AM 66.9 °F 46.9 °F 49% 30.06 in 10.0 mi South 11.5 mph - N/A   Overcast
12:53 PM 70.0 °F 46.0 °F 42% 30.03 in 10.0 mi SSE 8.1 mph - N/A   Mostly Cloudy
1:53 PM 72.0 °F 45.0 °F 38% 30.01 in 10.0 mi South 9.2 mph - N/A   Mostly Cloudy
2:53 PM 73.9 °F 43.0 °F 33% 29.99 in 10.0 mi South 10.4 mph 16.1 mph N/A   Mostly Cloudy
3:53 PM 73.0 °F 45.0 °F 37% 29.96 in 10.0 mi South 10.4 mph - N/A   Scattered Clouds
4:53 PM 73.0 °F 48.9 °F 42% 29.94 in 10.0 mi South 17.3 mph 21.9 mph N/A   Overcast
5:53 PM 70.0 °F 52.0 °F 53% 29.93 in 10.0 mi South 17.3 mph - N/A   Overcast
6:29 PM 69.8 °F 51.8 °F 53% 29.93 in 10.0 mi SW 16.1 mph - N/A   Overcast
6:53 PM 68.0 °F 51.1 °F 55% 29.92 in 10.0 mi WSW 11.5 mph - N/A   Overcast
7:53 PM 64.9 °F 50.0 °F 58% 29.92 in 10.0 mi WSW 11.5 mph 19.6 mph N/A   Overcast
8:53 PM 64.0 °F 48.9 °F 58% 29.93 in 10.0 mi SW 8.1 mph - N/A   Overcast
9:53 PM 63.0 °F 50.0 °F 63% 29.94 in 10.0 mi South 9.2 mph - 0.00 in Rain Light Rain
10:53 PM 60.1 °F 53.1 °F 78% 29.94 in 10.0 mi SSE 8.1 mph - 0.00 in   Mostly Cloudy
11:53 PM 59.0 °F 52.0 °F 78% 29.94 in 10.0 mi South 9.2 mph - N/A   Overcast